Regional Weather Roundup
Issued by NWS Sioux Falls, SD

Home | Current Version | Previous Version | Graphics & Text | Print | Product List | Glossary On
Versions: 1 2 3 4 5 6 7 8 9 10 11 12 13 14 15 16 17 18 19 20 21 22 23 24 25 26 27 28 29 30 31 32 33 34 35 36 37 38 39 40 41 42 43 44 45 46 47 48 49 50
000
ASUS43 KFSD 281302
RWRFSD

WEATHER ROUNDUP FOR SE SOUTH DAKOTA/SW MINNESOTA/NW IOWA
NATIONAL WEATHER SERVICE SIOUX FALLS SD
700 AM CST FRI NOV 28 2014

NOTE: "FAIR" INDICATES FEW OR NO CLOUDS BELOW 12,000 FEET WITH NO
SIGNIFICANT WEATHER AND OR OBSTRUCTIONS TO VISIBILITY.


SDZ038>040-050-052>070-281400-
SOUTHEAST SOUTH DAKOTA

CITY           SKY/WX    TMP DP  RH WIND       PRES   REMARKS
CHAMBERLAIN    NOT AVBL
HURON          CLOUDY    20  16  84 SE5       29.80F WCI  13
MADISON        FAIR      18  18 100 SE6       29.80F WCI   9
MITCHELL       CLOUDY    22  18  85 SE6       29.80F WCI  14
SIOUX FALLS    CLOUDY    19  16  88 E5        29.82F WCI  12
WINNER         FAIR      42  29  59 S9        29.73S
YANKTON        MOCLDY    21  18  86 E7        29.83S WCI  13
$$

MNZ071-072-080-081-089-090-097-098-281400-
SOUTHWEST MINNESOTA

CITY           SKY/WX    TMP DP  RH WIND       PRES   REMARKS
FAIRMONT       PTCLDY    12   9  85 SE10      29.92F WCI  -1
JACKSON        MOCLDY    14  10  85 SE6       29.90S WCI   5
LUVERNE        CLOUDY    19  16  86 SE5       29.85F WCI  13
MARSHALL       MOCLDY    10   3  72 SE9       29.88F WCI  -2
MONTEVIDEO     PTCLDY     9   5  85 SE9       29.94S WCI  -5
PIPESTONE      CLOUDY    16  14  93 SE8       29.82F WCI   5
REDWOOD FALLS  PTCLDY    11   5  77 SE9       29.94F WCI  -2
TRACY          MOCLDY    12   9  86 SE3       29.89F
WINDOM         PTCLDY    10   9  92 CALM      29.90
WORTHINGTON    CLOUDY    12  10  92 SE6       29.87S WCI   3
$$

IAZ001>003-012>014-020>022-031-032-NEZ013-014-SDZ071-281400-
NORTHWEST IOWA

CITY           SKY/WX    TMP DP  RH WIND       PRES   REMARKS
DENISON        MOCLDY    27  23  86 S13       29.88F WCI  16
ESTHERVILLE    PTCLDY    13  10  88 SE13      29.90F WCI  -2
SIOUX CITY     MOCLDY    25  21  85 SE9       29.86F WCI  15
SPENCER        MOCLDY    16  12  84 SE8       29.90F WCI   5
$$

ABBREVIATIONS USED IN REMARKS
   TC - TEMPERATURE IN CELSIUS
  WCI - WIND CHILL INDEX
   HX - HEAT INDEX
  VSB - VISIBILITY




USA.gov is the U.S. government's official web portal to all federal, state and local government web resources and services.